BEESAT-1

Last updated on Thu Nov 21 2024 00:03:02 GMT+0000 (Coordinated Universal Time)

1 35933U 09051C 24325.36884891 .00002063 00000+0 44184-3 0 9995 2 35933 98.4414 212.4101 0004668 196.4408 163.6641 14.59807343805400
UTC large
Height (km)
Speed (km/s)
/
Latitude / Longitude
Inclination (degrees)
Orbital Period (minutes)
Azimuth
Elevation
Range (km)
Doppler Factor

Next 0 passes for location: London (51.5072 / 0.1276)

Sorry there are no passes over London.